Date String (YYYY-MM-DD hh:mm:ss) UTC,Instrument flags,absolute air pressure of the measurement (hPa),sample flow rate (lpm),inlet stack bypass flow (lpm),air temperature of the measurement (°C),ambient temperature measured by the external sensor (°C),aerosol sample conditioner tube jacket temperature (°C),OPC LED temperature (°C),internal box temperature (°C),relative humidity of the measurement (%),span deviation,mass concentration of particles derived from Lorenz-Mie calculation of OPC scattering (μg/m³),mass concentration of particles derived from Lorenz-Mie calculation of OPC scattering (μg/m³),mass concentration of particles derived from Lorenz-Mie calculation of OPC scattering (μg/m³)
DateTimeUTC,F1_M11,P_M11,Q1_M11,Q2_M11,T1_M11,T2_M11,T3_M11,T4_M11,T5_M11,U1_M11,ZSPAN_M11,X2_M11,X0_M11,X1_M11
2024-02-13 22:00:00,SystemResetWarning,0824.9,5.01,000.00,023.7,023.2,000.0,032.0,025.5,13.9,0000.0,0005.32,0014.00,0004.64
2024-02-13 22:01:00,SystemResetWarning,0824.9,5.01,000.00,023.7,023.2,000.0,032.0,025.5,14.1,0000.0,0005.39,0014.17,0004.71
2024-02-13 22:02:00,SystemResetWarning,0824.9,5.00,000.00,023.7,023.2,000.0,032.0,025.5,14.6,0000.0,0005.49,0013.52,0004.79
2024-02-13 22:03:00,SystemResetWarning,0824.9,4.99,000.00,023.7,023.2,000.0,032.0,025.5,14.6,0000.0,0005.56,0012.05,0004.86
2024-02-13 22:04:00,SystemResetWarning,0824.9,4.99,000.00,023.7,023.2,000.0,032.0,025.5,14.6,0000.0,0005.58,0011.32,0004.88
2024-02-13 22:05:00,SystemResetWarning,0824.9,5.00,000.00,023.7,023.2,000.0,032.0,025.6,14.7,0000.0,0005.59,0011.95,0004.89
2024-02-13 22:06:00,SystemResetWarning,0825.0,5.01,000.00,023.8,023.2,000.0,032.1,025.6,14.2,0000.0,0005.58,0012.81,0004.90
2024-02-13 22:07:00,SystemResetWarning,0825.0,5.01,000.00,023.8,023.3,000.0,032.1,025.6,14.1,0000.0,0005.56,0013.43,0004.89
2024-02-13 22:08:00,SystemResetWarning,0825.0,4.98,000.00,023.8,023.3,000.0,032.1,025.6,14.3,0000.0,0005.58,0013.66,0004.89
2024-02-13 22:09:00,SystemResetWarning,0825.0,4.99,000.00,023.8,023.3,000.0,032.1,025.7,15.0,0000.0,0005.56,0013.51,0004.90
2024-02-13 22:10:00,SystemResetWarning,0824.9,5.01,000.00,023.8,023.3,000.0,032.1,025.6,15.2,0000.0,0005.54,0013.45,0004.88
2024-02-13 22:11:00,SystemResetWarning,0824.9,5.00,000.00,023.8,023.3,000.0,032.1,025.6,15.0,0000.0,0005.53,0013.91,0004.87
2024-02-13 22:12:00,SystemResetWarning,0824.8,5.00,000.00,023.8,023.3,000.0,032.1,025.6,13.6,0000.0,0005.53,0013.97,0004.85
2024-02-13 22:13:00,SystemResetWarning,0824.7,4.99,000.00,023.8,023.3,000.0,032.1,025.6,14.5,0000.0,0005.50,0014.01,0004.84
2024-02-13 22:14:00,SystemResetWarning,0824.7,4.99,000.00,023.8,023.3,000.0,032.1,025.6,14.8,0000.0,0005.47,0014.18,0004.83
2024-02-13 22:15:00,SystemResetWarning,0824.7,5.00,000.00,023.8,023.3,000.0,032.2,025.6,14.4,0000.0,0005.47,0014.06,0004.82
2024-02-13 22:16:00,SystemResetWarning,0824.8,5.00,000.00,023.8,023.3,000.0,032.2,025.6,14.4,0000.0,0005.47,0013.43,0004.84
2024-02-13 22:17:00,SystemResetWarning,0824.8,5.00,000.00,023.8,023.3,000.0,032.2,025.6,14.7,0000.0,0005.49,0013.08,0004.87
2024-02-13 22:18:00,SystemResetWarning,0824.8,5.01,000.00,023.8,023.3,000.0,032.2,025.6,14.5,0000.0,0005.53,0012.54,0004.91
2024-02-13 22:19:00,SystemResetWarning,0824.8,5.01,000.00,023.8,023.3,000.0,032.2,025.6,14.8,0000.0,0005.54,0012.42,0004.94
2024-02-13 22:20:00,SystemResetWarning,0824.9,5.00,000.00,023.8,023.3,000.0,032.2,025.6,15.1,0000.0,0005.58,0012.25,0004.93
2024-02-13 22:21:00,SystemResetWarning,0824.9,5.00,000.00,023.8,023.3,000.0,032.2,025.6,15.4,0000.0,0005.63,0012.60,0004.95
2024-02-13 22:22:00,SystemResetWarning,0824.9,5.00,000.00,023.8,023.3,000.0,032.2,025.6,15.0,0000.0,0005.64,0012.61,0004.95
2024-02-13 22:23:00,SystemResetWarning,0824.9,5.00,000.00,023.8,023.3,000.0,032.2,025.6,14.9,0000.0,0005.63,0013.04,0004.95
2024-02-13 22:24:00,SystemResetWarning,0824.9,4.99,000.00,023.9,023.3,000.0,032.2,025.6,15.0,0000.0,0005.64,0013.35,0004.96
2024-02-13 22:25:00,SystemResetWarning,0824.9,5.00,000.00,023.9,023.3,000.0,032.2,025.7,14.9,0000.0,0005.68,0013.32,0004.98
2024-02-13 22:26:00,SystemResetWarning,0824.9,5.01,000.00,023.9,023.3,000.0,032.2,025.7,14.9,0000.0,0005.73,0013.61,0005.01
2024-02-13 22:27:00,SystemResetWarning,0824.9,5.00,000.00,023.9,023.3,000.0,032.2,025.7,14.7,0000.0,0005.76,0013.67,0005.04
2024-02-13 22:28:00,SystemResetWarning,0824.8,5.00,000.00,023.9,023.4,000.0,032.2,025.7,14.9,0000.0,0005.79,0013.60,0005.06
2024-02-13 22:29:00,SystemResetWarning,0824.8,5.01,000.00,023.9,023.4,000.0,032.3,025.7,14.6,0000.0,0005.79,0013.74,0005.06
2024-02-13 22:30:00,SystemResetWarning,0824.8,4.99,000.00,023.9,023.4,000.0,032.3,025.7,14.5,0000.0,0005.79,0013.36,0005.07
2024-02-13 22:31:00,SystemResetWarning,0824.9,4.99,000.00,023.9,023.4,000.0,032.3,025.7,14.5,0000.0,0005.80,0013.42,0005.13
2024-02-13 22:32:00,SystemResetWarning,0824.9,4.99,000.00,023.9,023.4,000.0,032.3,025.7,14.2,0000.0,0005.81,0013.08,0005.13
2024-02-13 22:33:00,SystemResetWarning,0824.9,5.00,000.00,023.9,023.4,000.0,032.3,025.7,14.1,0000.0,0005.80,0012.40,0005.14
2024-02-13 22:34:00,SystemResetWarning,0824.9,5.01,000.00,023.9,023.4,000.0,032.3,025.7,14.0,0000.0,0005.86,0012.02,0005.19
2024-02-13 22:35:00,SystemResetWarning,0824.9,5.01,000.00,023.9,023.4,000.0,032.3,025.8,14.0,0000.0,0005.90,0011.86,0005.21
2024-02-13 22:36:00,SystemResetWarning,0824.9,5.00,000.00,024.0,023.4,000.0,032.3,025.8,14.1,0000.0,0005.88,0011.67,0005.22
2024-02-13 22:37:00,SystemResetWarning,0824.9,4.98,000.00,024.0,023.4,000.0,032.3,025.8,14.3,0000.0,0005.89,0011.78,0005.22
2024-02-13 22:38:00,SystemResetWarning,0824.9,5.01,000.00,024.0,023.4,000.0,032.3,025.9,14.5,0000.0,0005.90,0012.41,0005.22
2024-02-13 22:39:00,SystemResetWarning,0824.9,5.01,000.00,024.0,023.4,000.0,032.3,025.9,15.0,0000.0,0005.92,0013.74,0005.20
2024-02-13 22:40:00,SystemResetWarning,0824.9,4.98,000.00,024.0,023.5,000.0,032.3,025.9,15.0,0000.0,0005.92,0014.40,0005.18
2024-02-13 22:41:00,SystemResetWarning,0824.9,5.00,000.00,024.0,023.5,000.0,032.4,025.9,14.8,0000.0,0005.90,0014.49,0005.17
2024-02-13 22:42:00,SystemResetWarning,0824.9,5.02,000.00,024.0,023.5,000.0,032.4,025.9,14.7,0000.0,0005.92,0014.72,0005.15
2024-02-13 22:43:00,SystemResetWarning,0824.9,5.00,000.00,024.0,023.5,000.0,032.4,025.9,14.7,0000.0,0005.89,0015.27,0005.14
2024-02-13 22:44:00,SystemResetWarning,0824.9,4.99,000.00,024.0,023.5,000.0,032.4,025.9,14.5,0000.0,0005.88,0015.34,0005.12
2024-02-13 22:45:00,SystemResetWarning,0824.9,5.00,000.00,024.0,023.5,000.0,032.4,025.9,13.8,0000.0,0005.87,0015.71,0005.11
2024-02-13 22:46:00,SystemResetWarning,0824.9,5.01,000.00,024.0,023.5,000.0,032.4,025.9,13.8,0000.0,0005.86,0015.64,0005.11
2024-02-13 22:47:00,SystemResetWarning,0824.9,5.01,000.00,024.1,023.5,000.0,032.4,025.9,13.5,0000.0,0005.86,0015.84,0005.13
2024-02-13 22:48:00,SystemResetWarning,0824.9,4.99,000.00,024.1,023.5,000.0,032.4,025.9,13.6,0000.0,0005.90,0016.28,0005.16
2024-02-13 22:49:00,SystemResetWarning,0824.9,4.99,000.00,024.1,023.5,000.0,032.4,025.9,13.9,0000.0,0005.94,0016.17,0005.19
2024-02-13 22:50:00,SystemResetWarning,0824.9,5.00,000.00,024.1,023.5,000.0,032.4,025.9,14.2,0000.0,0005.92,0014.94,0005.20
2024-02-13 22:51:00,SystemResetWarning,0824.9,5.00,000.00,024.1,023.5,000.0,032.4,025.9,14.2,0000.0,0005.96,0013.79,0005.23
2024-02-13 22:52:00,SystemResetWarning,0824.9,5.01,000.00,024.1,023.5,000.0,032.4,025.9,14.6,0000.0,0005.97,0013.55,0005.24
2024-02-13 22:53:00,SystemResetWarning,0824.9,5.01,000.00,024.1,023.5,000.0,032.4,025.9,14.4,0000.0,0005.99,0013.08,0005.24
2024-02-13 22:54:00,SystemResetWarning,0824.9,5.00,000.00,024.1,023.5,000.0,032.5,025.9,14.3,0000.0,0005.94,0012.48,0005.23
2024-02-13 22:55:00,SystemResetWarning,0824.9,5.00,000.00,024.1,023.5,000.0,032.5,025.9,14.4,0000.0,0005.92,0012.24,0005.21
2024-02-13 22:56:00,SystemResetWarning,0824.9,4.99,000.00,024.1,023.5,000.0,032.5,026.0,14.3,0000.0,0005.92,0011.83,0005.22
2024-02-13 22:57:00,SystemResetWarning,0824.9,5.00,000.00,024.1,023.6,000.0,032.5,026.0,14.5,0000.0,0005.93,0011.64,0005.24
2024-02-13 22:58:00,SystemResetWarning,0824.9,4.99,000.00,024.1,023.6,000.0,032.5,026.0,14.0,0000.0,0005.92,0011.58,0005.23
2024-02-13 22:59:00,SystemResetWarning,0824.9,5.00,000.00,024.1,023.6,000.0,032.5,026.0,14.0,0000.0,0005.91,0011.02,0005.23
